Time,TemperatureF,DewpointF,PressureIn,WindDirection,WindDirectionDegrees,WindSpeedMPH,WindSpeedGustMPH,Humidity,HourlyPrecipIn,Conditions,Clouds,dailyrainin,SolarRadiationWatts/m^2,SoftwareType,DateUTC
2013-04-06 00:00:00,27.7,21.4,30.21,NW,323,0.0,3.0,77,0.00,,,0.00,0.0,meteohub,2013-04-06 04:00:00,
2013-04-06 00:03:00,27.7,21.4,30.21,NW,323,0.0,3.0,77,0.00,,,0.00,0.0,meteohub,2013-04-06 04:03:00,
2013-04-06 00:08:00,27.7,21.4,30.21,NW,323,0.0,3.0,77,0.00,,,0.00,0.0,meteohub,2013-04-06 04:08:00,
2013-04-06 00:13:00,27.7,21.0,30.21,NW,323,0.0,2.0,76,0.00,,,0.00,0.0,meteohub,2013-04-06 04:13:00,
2013-04-06 00:18:00,27.7,21.4,30.21,NW,323,0.0,1.0,77,0.00,,,0.00,0.0,meteohub,2013-04-06 04:18:00,
2013-04-06 00:23:00,27.5,21.6,30.21,NW,323,0.0,1.0,78,0.00,,,0.00,0.0,meteohub,2013-04-06 04:23:00,
2013-04-06 00:28:00,27.3,21.4,30.21,NW,323,1.0,1.0,78,0.00,,,0.00,0.0,meteohub,2013-04-06 04:28:00,
2013-04-06 00:33:00,27.1,21.2,30.21,NW,323,0.0,1.0,78,0.00,,,0.00,0.0,meteohub,2013-04-06 04:33:00,
2013-04-06 00:38:00,27.1,21.2,30.20,NW,323,0.0,1.0,78,0.00,,,0.00,0.0,meteohub,2013-04-06 04:38:00,
2013-04-06 00:43:00,27.0,21.4,30.20,NW,323,1.0,1.0,79,0.00,,,0.00,0.0,meteohub,2013-04-06 04:43:00,
2013-04-06 00:48:00,27.0,22.5,30.20,NW,323,1.0,2.0,83,0.00,,,0.00,0.0,meteohub,2013-04-06 04:48:00,
2013-04-06 00:53:00,27.1,22.6,30.20,NW,323,1.0,2.0,83,0.00,,,0.00,0.0,meteohub,2013-04-06 04:53:00,
2013-04-06 00:59:00,27.1,22.6,30.20,NW,323,0.0,2.0,83,0.00,,,0.00,0.0,meteohub,2013-04-06 04:59:00,
2013-04-06 01:04:00,27.0,22.5,30.20,NW,323,0.0,1.0,83,0.00,,,0.00,0.0,meteohub,2013-04-06 05:04:00,
2013-04-06 01:09:00,26.8,21.7,30.20,NW,323,0.0,1.0,81,0.00,,,0.00,0.0,meteohub,2013-04-06 05:09:00,
2013-04-06 01:16:00,26.6,21.2,30.20,NW,323,0.0,1.0,80,0.00,,,0.00,0.0,meteohub,2013-04-06 05:16:00,
2013-04-06 01:22:00,26.4,21.0,30.21,NW,323,0.0,0.0,80,0.00,,,0.00,0.0,meteohub,2013-04-06 05:22:00,
2013-04-06 01:27:00,26.4,21.4,30.21,NW,323,0.0,0.0,81,0.00,,,0.00,0.0,meteohub,2013-04-06 05:27:00,
2013-04-06 01:32:00,26.4,21.7,30.21,NW,323,0.0,0.0,82,0.00,,,0.00,0.0,meteohub,2013-04-06 05:32:00,
2013-04-06 01:37:00,26.2,21.6,30.20,NW,323,0.0,0.0,82,0.00,,,0.00,0.0,meteohub,2013-04-06 05:37:00,
2013-04-06 01:42:00,26.2,21.7,30.21,NW,323,0.0,0.0,83,0.00,,,0.00,0.0,meteohub,2013-04-06 05:42:00,
2013-04-06 01:47:00,26.1,21.4,30.21,NW,323,0.0,0.0,82,0.00,,,0.00,0.0,meteohub,2013-04-06 05:47:00,
2013-04-06 01:52:00,26.1,21.9,30.21,NW,323,0.0,0.0,84,0.00,,,0.00,0.0,meteohub,2013-04-06 05:52:00,
2013-04-06 01:57:00,26.1,22.5,30.21,NW,323,0.0,0.0,86,0.00,,,0.00,0.0,meteohub,2013-04-06 05:57:00,
2013-04-06 02:03:00,26.1,22.6,30.21,NW,323,0.0,0.0,87,0.00,,,0.00,0.0,meteohub,2013-04-06 06:03:00,
2013-04-06 02:08:00,26.1,22.5,30.21,NW,323,0.0,1.0,86,0.00,,,0.00,0.0,meteohub,2013-04-06 06:08:00,
2013-04-06 02:13:00,26.1,22.5,30.21,NW,323,0.0,1.0,86,0.00,,,0.00,0.0,meteohub,2013-04-06 06:13:00,
2013-04-06 02:18:00,25.9,21.9,30.21,NW,323,0.0,1.0,85,0.00,,,0.00,0.0,meteohub,2013-04-06 06:18:00,
2013-04-06 02:23:00,25.7,21.7,30.20,NW,323,0.0,1.0,85,0.00,,,0.00,0.0,meteohub,2013-04-06 06:23:00,
2013-04-06 02:28:00,25.7,22.1,30.20,NW,323,0.0,1.0,86,0.00,,,0.00,0.0,meteohub,2013-04-06 06:28:00,
2013-04-06 02:33:00,25.5,22.3,30.21,NW,323,0.0,1.0,87,0.00,,,0.00,0.0,meteohub,2013-04-06 06:33:00,
2013-04-06 02:38:00,25.3,22.3,30.21,NW,323,0.0,1.0,88,0.00,,,0.00,0.0,meteohub,2013-04-06 06:38:00,
2013-04-06 02:43:00,25.3,22.3,30.21,NW,323,0.0,1.0,88,0.00,,,0.00,0.0,meteohub,2013-04-06 06:43:00,
2013-04-06 02:48:00,25.2,21.9,30.21,NW,323,0.0,1.0,87,0.00,,,0.00,0.0,meteohub,2013-04-06 06:48:00,
2013-04-06 02:53:00,25.2,21.9,30.21,NW,323,0.0,1.0,87,0.00,,,0.00,0.0,meteohub,2013-04-06 06:53:00,
2013-04-06 02:58:00,25.2,21.9,30.20,NW,323,1.0,1.0,87,0.00,,,0.00,0.0,meteohub,2013-04-06 06:58:00,
2013-04-06 03:03:00,25.2,21.6,30.20,NW,323,0.0,1.0,86,0.00,,,0.00,0.0,meteohub,2013-04-06 07:03:00,
2013-04-06 03:08:00,25.0,21.4,30.20,NW,323,0.0,1.0,86,0.00,,,0.00,0.0,meteohub,2013-04-06 07:08:00,
2013-04-06 03:13:00,25.0,21.4,30.20,NW,323,0.0,1.0,86,0.00,,,0.00,0.0,meteohub,2013-04-06 07:13:00,
2013-04-06 03:18:00,25.0,21.2,30.21,NW,323,0.0,1.0,85,0.00,,,0.00,0.0,meteohub,2013-04-06 07:18:00,
2013-04-06 03:23:00,25.0,21.4,30.20,NW,323,1.0,1.0,86,0.00,,,0.00,0.0,meteohub,2013-04-06 07:23:00,
2013-04-06 03:28:00,25.0,21.4,30.20,NW,323,0.0,1.0,86,0.00,,,0.00,0.0,meteohub,2013-04-06 07:28:00,
2013-04-06 03:34:00,25.0,21.4,30.21,NW,323,0.0,1.0,86,0.00,,,0.00,0.0,meteohub,2013-04-06 07:34:00,
2013-04-06 03:39:00,24.8,21.2,30.21,NW,323,0.0,1.0,86,0.00,,,0.00,0.0,meteohub,2013-04-06 07:39:00,
2013-04-06 03:44:00,24.6,21.4,30.20,NW,323,1.0,1.0,87,0.00,,,0.00,0.0,meteohub,2013-04-06 07:44:00,
2013-04-06 03:49:00,24.6,21.4,30.19,NNW,329,1.0,1.0,87,0.00,,,0.00,0.0,meteohub,2013-04-06 07:49:00,
2013-04-06 03:55:00,24.8,21.2,30.20,NNW,335,1.0,2.0,86,0.00,,,0.00,0.0,meteohub,2013-04-06 07:55:00,
2013-04-06 04:00:00,24.8,21.2,30.19,NNW,340,1.0,2.0,86,0.00,,,0.00,0.0,meteohub,2013-04-06 08:00:00,
2013-04-06 04:05:00,25.0,21.4,30.19,NNW,342,0.0,2.0,86,0.00,,,0.00,0.0,meteohub,2013-04-06 08:05:00,
2013-04-06 04:10:00,24.8,21.2,30.20,NNW,342,0.0,2.0,86,0.00,,,0.00,0.0,meteohub,2013-04-06 08:10:00,
2013-04-06 04:15:00,24.8,21.6,30.20,North,350,0.0,2.0,87,0.00,,,0.00,0.0,meteohub,2013-04-06 08:15:00,
2013-04-06 04:20:00,24.8,21.6,30.20,North,355,0.0,2.0,87,0.00,,,0.00,0.0,meteohub,2013-04-06 08:20:00,
2013-04-06 04:25:00,25.0,21.7,30.20,NNE,13,1.0,2.0,87,0.00,,,0.00,0.0,meteohub,2013-04-06 08:25:00,
2013-04-06 04:30:00,25.2,21.6,30.20,East,100,0.0,3.0,86,0.00,,,0.00,0.0,meteohub,2013-04-06 08:30:00,
2013-04-06 04:35:00,25.2,21.6,30.19,ESE,106,1.0,3.0,86,0.00,,,0.00,0.0,meteohub,2013-04-06 08:35:00,
2013-04-06 04:41:00,25.3,21.7,30.19,East,97,1.0,3.0,86,0.00,,,0.00,0.0,meteohub,2013-04-06 08:41:00,
2013-04-06 04:46:00,25.3,21.7,30.20,East,97,0.0,3.0,86,0.00,,,0.00,0.0,meteohub,2013-04-06 08:46:00,
2013-04-06 04:51:00,25.3,21.4,30.20,East,100,0.0,3.0,85,0.00,,,0.00,0.0,meteohub,2013-04-06 08:51:00,
2013-04-06 04:56:00,25.2,21.6,30.20,SSE,163,2.0,2.0,86,0.00,,,0.00,0.0,meteohub,2013-04-06 08:56:00,
2013-04-06 05:02:00,25.2,21.6,30.20,South,169,1.0,3.0,86,0.00,,,0.00,0.0,meteohub,2013-04-06 09:02:00,
2013-04-06 05:07:00,25.2,21.6,30.20,SSE,161,1.0,3.0,86,0.00,,,0.00,0.0,meteohub,2013-04-06 09:07:00,
2013-04-06 05:12:00,25.2,21.6,30.20,SSE,150,2.0,3.0,86,0.00,,,0.00,0.0,meteohub,2013-04-06 09:12:00,
2013-04-06 05:17:00,25.3,21.7,30.20,SE,146,3.0,4.0,86,0.00,,,0.00,0.0,meteohub,2013-04-06 09:17:00,
2013-04-06 05:22:00,25.3,21.7,30.20,SSE,152,1.0,4.0,86,0.00,,,0.00,0.0,meteohub,2013-04-06 09:22:00,
2013-04-06 05:27:00,25.3,21.7,30.20,South,169,1.0,4.0,86,0.00,,,0.00,0.0,meteohub,2013-04-06 09:27:00,
2013-04-06 05:32:00,25.3,21.7,30.20,SE,144,1.0,3.0,86,0.00,,,0.00,0.0,meteohub,2013-04-06 09:32:00,
2013-04-06 05:37:00,25.3,21.7,30.20,South,170,1.0,3.0,86,0.00,,,0.00,0.0,meteohub,2013-04-06 09:37:00,
2013-04-06 05:42:00,25.3,22.1,30.20,ESE,119,0.0,3.0,87,0.00,,,0.00,0.0,meteohub,2013-04-06 09:42:00,
2013-04-06 05:47:00,25.3,22.1,30.20,SSE,150,1.0,3.0,87,0.00,,,0.00,0.0,meteohub,2013-04-06 09:47:00,
2013-04-06 05:52:00,25.3,22.1,30.19,ESE,118,0.0,3.0,87,0.00,,,0.00,0.0,meteohub,2013-04-06 09:52:00,
2013-04-06 05:57:00,25.3,22.1,30.19,SSE,152,1.0,3.0,87,0.00,,,0.00,0.0,meteohub,2013-04-06 09:57:00,
2013-04-06 06:03:00,25.3,22.1,30.20,SSE,156,0.0,2.0,87,0.00,,,0.00,0.0,meteohub,2013-04-06 10:03:00,
2013-04-06 06:08:00,25.5,22.5,30.19,SE,132,2.0,3.0,88,0.00,,,0.00,0.0,meteohub,2013-04-06 10:08:00,
2013-04-06 06:13:00,25.3,22.1,30.19,SSE,157,1.0,3.0,87,0.00,,,0.00,0.0,meteohub,2013-04-06 10:13:00,
2013-04-06 06:18:00,25.5,22.5,30.20,SSE,150,0.0,3.0,88,0.00,,,0.00,0.0,meteohub,2013-04-06 10:18:00,
2013-04-06 06:23:00,25.5,22.5,30.19,South,178,3.0,4.0,88,0.00,,,0.00,0.0,meteohub,2013-04-06 10:23:00,
2013-04-06 06:28:00,25.7,22.5,30.20,SSE,150,2.0,4.0,87,0.00,,,0.00,0.0,meteohub,2013-04-06 10:28:00,
2013-04-06 06:33:00,25.9,22.5,30.19,SE,142,2.0,4.0,87,0.00,,,0.00,0.0,meteohub,2013-04-06 10:33:00,
2013-04-06 06:38:00,25.9,22.5,30.19,SSE,155,1.0,4.0,87,0.00,,,0.00,0.0,meteohub,2013-04-06 10:38:00,
2013-04-06 06:43:00,25.9,22.5,30.19,SE,142,2.0,4.0,87,0.00,,,0.00,0.0,meteohub,2013-04-06 10:43:00,
2013-04-06 06:48:00,25.9,22.5,30.19,SE,130,2.0,4.0,87,0.00,,,0.00,0.0,meteohub,2013-04-06 10:48:00,
2013-04-06 06:53:00,25.9,22.5,30.19,SSE,155,3.0,5.0,87,0.00,,,0.00,0.0,meteohub,2013-04-06 10:53:00,
2013-04-06 06:58:00,26.1,22.6,30.19,SE,146,5.0,7.0,87,0.00,,,0.00,0.0,meteohub,2013-04-06 10:58:00,
2013-04-06 07:03:00,26.2,22.6,30.19,SSE,157,5.0,7.0,86,0.00,,,0.00,0.0,meteohub,2013-04-06 11:03:00,
2013-04-06 07:08:00,26.2,22.6,30.19,SSE,157,2.0,7.0,86,0.00,,,0.00,0.0,meteohub,2013-04-06 11:08:00,
2013-04-06 07:13:00,26.6,22.6,30.19,SE,130,2.0,7.0,85,0.00,,,0.00,0.0,meteohub,2013-04-06 11:13:00,
2013-04-06 07:18:00,26.8,23.2,30.19,SSE,152,2.0,7.0,86,0.00,,,0.00,7.0,meteohub,2013-04-06 11:18:00,
2013-04-06 07:23:00,27.0,23.0,30.19,SSE,151,2.0,6.0,85,0.00,,,0.00,11.0,meteohub,2013-04-06 11:23:00,
2013-04-06 07:28:00,27.0,23.0,30.19,South,187,2.0,6.0,85,0.00,,,0.00,16.0,meteohub,2013-04-06 11:28:00,
2013-04-06 07:33:00,27.1,23.0,30.19,South,173,3.0,6.0,84,0.00,,,0.00,23.0,meteohub,2013-04-06 11:33:00,
2013-04-06 07:38:00,27.1,23.0,30.18,SSE,158,1.0,6.0,84,0.00,,,0.00,32.0,meteohub,2013-04-06 11:38:00,
2013-04-06 07:43:00,27.1,23.0,30.18,SE,142,6.0,6.0,84,0.00,,,0.00,39.0,meteohub,2013-04-06 11:43:00,
2013-04-06 07:48:00,27.3,23.2,30.18,ESE,122,3.0,6.0,84,0.00,,,0.00,42.0,meteohub,2013-04-06 11:48:00,
2013-04-06 07:53:00,27.3,23.4,30.18,South,175,4.0,6.0,85,0.00,,,0.00,49.0,meteohub,2013-04-06 11:53:00,
2013-04-06 07:58:00,27.5,23.4,30.18,SE,145,3.0,6.0,84,0.00,,,0.00,58.0,meteohub,2013-04-06 11:58:00,
2013-04-06 08:03:00,27.7,23.5,30.18,SSE,166,3.0,7.0,84,0.00,,,0.00,67.0,meteohub,2013-04-06 12:03:00,
2013-04-06 08:08:00,27.7,23.5,30.18,SE,138,2.0,7.0,84,0.00,,,0.00,67.0,meteohub,2013-04-06 12:08:00,
2013-04-06 08:13:00,27.9,23.7,30.18,SE,138,1.0,7.0,84,0.00,,,0.00,72.0,meteohub,2013-04-06 12:13:00,
2013-04-06 08:18:00,28.0,23.9,30.17,SSE,161,2.0,7.0,84,0.00,,,0.00,79.0,meteohub,2013-04-06 12:18:00,
2013-04-06 08:23:00,28.0,23.5,30.18,SSE,148,2.0,6.0,83,0.00,,,0.00,69.0,meteohub,2013-04-06 12:23:00,
2013-04-06 08:29:00,28.2,24.1,30.17,SSE,160,2.0,9.0,84,0.00,,,0.00,63.0,meteohub,2013-04-06 12:29:00,
2013-04-06 08:34:00,28.4,23.5,30.17,South,178,5.0,9.0,82,0.00,,,0.00,72.0,meteohub,2013-04-06 12:34:00,
2013-04-06 08:40:00,28.6,23.5,30.17,SSE,147,2.0,9.0,81,0.00,,,0.00,83.0,meteohub,2013-04-06 12:40:00,
2013-04-06 08:45:00,28.8,23.7,30.17,SSE,167,1.0,9.0,81,0.00,,,0.00,83.0,meteohub,2013-04-06 12:45:00,
2013-04-06 08:50:00,28.9,23.9,30.17,South,172,4.0,9.0,81,0.00,,,0.00,88.0,meteohub,2013-04-06 12:50:00,
2013-04-06 08:55:00,28.9,23.2,30.17,SSE,151,5.0,9.0,79,0.00,,,0.00,91.0,meteohub,2013-04-06 12:55:00,
2013-04-06 09:00:00,29.1,23.2,30.17,SSW,198,5.0,9.0,78,0.00,,,0.00,102.0,meteohub,2013-04-06 13:00:00,
2013-04-06 09:05:00,29.5,23.2,30.17,SSE,167,4.0,9.0,77,0.00,,,0.00,113.0,meteohub,2013-04-06 13:05:00,
2013-04-06 09:10:00,29.7,23.0,30.16,South,184,5.0,8.0,76,0.00,,,0.00,118.0,meteohub,2013-04-06 13:10:00,
2013-04-06 09:15:00,29.8,22.6,30.16,South,186,5.0,8.0,74,0.00,,,0.00,121.0,meteohub,2013-04-06 13:15:00,
2013-04-06 09:20:00,30.0,23.0,30.16,South,171,3.0,8.0,75,0.00,,,0.00,135.0,meteohub,2013-04-06 13:20:00,
2013-04-06 09:25:00,30.4,22.8,30.16,SSE,153,3.0,8.0,73,0.00,,,0.00,162.0,meteohub,2013-04-06 13:25:00,
2013-04-06 09:31:00,30.6,22.3,30.15,SSE,156,7.0,9.0,71,0.00,,,0.00,172.0,meteohub,2013-04-06 13:31:00,
2013-04-06 09:36:00,30.9,23.0,30.15,SSE,159,1.0,11.0,72,0.00,,,0.00,149.0,meteohub,2013-04-06 13:36:00,
2013-04-06 09:41:00,31.1,22.5,30.15,South,175,4.0,11.0,70,0.00,,,0.00,118.0,meteohub,2013-04-06 13:41:00,
2013-04-06 09:46:00,31.1,22.1,30.15,SSW,193,4.0,11.0,69,0.00,,,0.00,114.0,meteohub,2013-04-06 13:46:00,
2013-04-06 09:51:00,31.3,21.9,30.15,South,188,2.0,9.0,68,0.00,,,0.00,120.0,meteohub,2013-04-06 13:51:00,
2013-04-06 09:57:00,31.5,22.1,30.15,South,188,3.0,8.0,68,0.00,,,0.00,118.0,meteohub,2013-04-06 13:57:00,
2013-04-06 10:02:00,31.5,21.4,30.15,SSE,161,3.0,9.0,66,0.00,,,0.00,130.0,meteohub,2013-04-06 14:02:00,
2013-04-06 10:07:00,31.8,21.7,30.14,SSE,160,2.0,9.0,66,0.00,,,0.00,163.0,meteohub,2013-04-06 14:07:00,
2013-04-06 10:12:00,32.2,21.0,30.14,South,177,3.0,9.0,63,0.00,,,0.00,176.0,meteohub,2013-04-06 14:12:00,
2013-04-06 10:17:00,32.4,20.5,30.14,SSE,160,8.0,8.0,61,0.00,,,0.00,141.0,meteohub,2013-04-06 14:17:00,
2013-04-06 10:22:00,32.4,20.5,30.14,South,182,4.0,10.0,61,0.00,,,0.00,114.0,meteohub,2013-04-06 14:22:00,
2013-04-06 10:27:00,32.5,20.7,30.14,SE,138,3.0,10.0,61,0.00,,,0.00,104.0,meteohub,2013-04-06 14:27:00,
2013-04-06 10:32:00,32.5,20.7,30.14,SSE,153,7.0,14.0,61,0.00,,,0.00,111.0,meteohub,2013-04-06 14:32:00,
2013-04-06 10:37:00,32.5,21.4,30.14,South,188,3.0,14.0,63,0.00,,,0.00,113.0,meteohub,2013-04-06 14:37:00,
2013-04-06 10:42:00,32.4,23.0,30.14,SSE,159,7.0,13.0,68,0.00,,,0.00,137.0,meteohub,2013-04-06 14:42:00,
2013-04-06 10:47:00,32.2,23.9,30.14,SE,140,7.0,14.0,71,0.00,,,0.00,153.0,meteohub,2013-04-06 14:47:00,
2013-04-06 10:53:00,31.6,24.6,30.14,SSE,151,2.0,14.0,75,0.00,,,0.00,169.0,meteohub,2013-04-06 14:53:00,
2013-04-06 10:58:00,31.5,25.2,30.14,South,173,8.0,14.0,77,0.00,,,0.00,185.0,meteohub,2013-04-06 14:58:00,
2013-04-06 11:03:00,31.5,25.7,30.14,South,180,4.0,14.0,79,0.00,,,0.00,181.0,meteohub,2013-04-06 15:03:00,
2013-04-06 11:08:00,31.5,26.2,30.14,SSE,156,3.0,14.0,81,0.00,,,0.00,183.0,meteohub,2013-04-06 15:08:00,
2013-04-06 11:13:00,31.5,26.6,30.13,SSW,210,2.0,13.0,82,0.00,,,0.00,176.0,meteohub,2013-04-06 15:13:00,
2013-04-06 11:18:00,31.5,27.0,30.14,SSW,193,4.0,11.0,83,0.00,,,0.00,176.0,meteohub,2013-04-06 15:18:00,
2013-04-06 11:23:00,31.5,27.0,30.13,South,189,6.0,11.0,83,0.00,,,0.00,167.0,meteohub,2013-04-06 15:23:00,
2013-04-06 11:29:00,31.3,27.3,30.12,SSE,167,2.0,11.0,85,0.00,,,0.00,155.0,meteohub,2013-04-06 15:29:00,
2013-04-06 11:34:00,31.5,27.7,30.12,SSE,150,4.0,11.0,86,0.00,,,0.00,130.0,meteohub,2013-04-06 15:34:00,
2013-04-06 11:39:00,31.5,27.7,30.12,South,170,5.0,11.0,86,0.00,,,0.00,111.0,meteohub,2013-04-06 15:39:00,
2013-04-06 11:45:00,31.3,27.5,30.12,SE,142,2.0,9.0,86,0.00,,,0.00,116.0,meteohub,2013-04-06 15:45:00,
2013-04-06 11:50:00,31.3,27.5,30.11,SSE,167,4.0,9.0,86,0.00,,,0.00,118.0,meteohub,2013-04-06 15:50:00,
2013-04-06 11:55:00,31.3,27.5,30.11,SSE,148,4.0,10.0,86,0.00,,,0.00,163.0,meteohub,2013-04-06 15:55:00,
2013-04-06 12:00:00,31.3,27.9,30.11,ESE,122,3.0,14.0,87,0.00,,,0.00,158.0,meteohub,2013-04-06 16:00:00,
2013-04-06 12:05:00,31.5,28.0,30.11,South,169,3.0,14.0,87,0.00,,,0.00,141.0,meteohub,2013-04-06 16:05:00,
2013-04-06 12:10:00,31.5,28.4,30.10,East,92,5.0,14.0,88,0.00,,,0.00,134.0,meteohub,2013-04-06 16:10:00,
2013-04-06 12:15:00,31.5,28.4,30.10,South,186,5.0,10.0,88,0.00,,,0.00,114.0,meteohub,2013-04-06 16:15:00,
2013-04-06 12:20:00,31.5,28.6,30.09,SSE,161,3.0,10.0,89,0.00,,,0.00,86.0,meteohub,2013-04-06 16:20:00,
2013-04-06 12:25:00,31.3,28.8,30.09,South,169,1.0,11.0,90,0.01,,,0.01,90.0,meteohub,2013-04-06 16:25:00,
2013-04-06 12:31:00,31.3,28.9,30.09,SSE,159,7.0,11.0,91,0.01,,,0.01,102.0,meteohub,2013-04-06 16:31:00,
2013-04-06 12:36:00,31.3,28.9,30.08,SSE,164,7.0,11.0,91,0.02,,,0.02,127.0,meteohub,2013-04-06 16:36:00,
2013-04-06 12:41:00,31.3,28.9,30.08,South,177,3.0,11.0,91,0.02,,,0.02,155.0,meteohub,2013-04-06 16:41:00,
2013-04-06 12:46:00,31.5,29.5,30.08,SSE,163,2.0,11.0,92,0.02,,,0.02,156.0,meteohub,2013-04-06 16:46:00,
2013-04-06 12:51:00,31.5,29.5,30.08,South,176,3.0,9.0,92,0.02,,,0.02,142.0,meteohub,2013-04-06 16:51:00,
2013-04-06 12:56:00,31.5,29.5,30.07,SE,139,4.0,12.0,92,0.02,,,0.02,130.0,meteohub,2013-04-06 16:56:00,
2013-04-06 13:02:00,31.5,29.7,30.07,SSE,151,5.0,12.0,93,0.02,,,0.02,84.0,meteohub,2013-04-06 17:02:00,
2013-04-06 13:07:00,31.3,29.5,30.06,South,186,4.0,12.0,93,0.03,,,0.03,74.0,meteohub,2013-04-06 17:07:00,
2013-04-06 13:12:00,31.3,29.5,30.06,South,169,5.0,11.0,93,0.03,,,0.03,70.0,meteohub,2013-04-06 17:12:00,
2013-04-06 13:17:00,31.3,29.5,30.06,SE,134,5.0,10.0,93,0.03,,,0.03,83.0,meteohub,2013-04-06 17:17:00,
2013-04-06 13:22:00,31.5,29.7,30.06,SE,135,2.0,10.0,93,0.03,,,0.04,88.0,meteohub,2013-04-06 17:22:00,
2013-04-06 13:27:00,31.5,29.7,30.05,SE,134,5.0,10.0,93,0.03,,,0.04,102.0,meteohub,2013-04-06 17:27:00,
2013-04-06 13:32:00,31.6,29.8,30.05,ESE,115,1.0,9.0,93,0.02,,,0.04,134.0,meteohub,2013-04-06 17:32:00,
2013-04-06 13:37:00,31.6,29.8,30.04,SE,133,6.0,12.0,93,0.02,,,0.04,146.0,meteohub,2013-04-06 17:37:00,
2013-04-06 13:42:00,31.8,30.0,30.04,SSE,150,1.0,12.0,93,0.02,,,0.04,248.0,meteohub,2013-04-06 17:42:00,
2013-04-06 13:47:00,32.2,30.4,30.04,South,181,4.0,12.0,93,0.02,,,0.04,248.0,meteohub,2013-04-06 17:47:00,
2013-04-06 13:52:00,32.4,30.4,30.03,South,178,3.0,11.0,92,0.02,,,0.04,236.0,meteohub,2013-04-06 17:52:00,
2013-04-06 13:57:00,32.4,30.4,30.03,SE,136,2.0,11.0,92,0.02,,,0.04,225.0,meteohub,2013-04-06 17:57:00,
2013-04-06 14:02:00,32.7,30.7,30.02,SE,132,3.0,16.0,92,0.01,,,0.04,250.0,meteohub,2013-04-06 18:02:00,
2013-04-06 14:08:00,32.9,30.6,30.02,SE,138,2.0,16.0,91,0.01,,,0.04,230.0,meteohub,2013-04-06 18:08:00,
2013-04-06 14:13:00,33.3,30.9,30.03,South,180,6.0,16.0,91,0.01,,,0.04,197.0,meteohub,2013-04-06 18:13:00,
2013-04-06 14:18:00,33.1,30.4,30.02,SSE,150,6.0,11.0,90,0.01,,,0.04,190.0,meteohub,2013-04-06 18:18:00,
2013-04-06 14:24:00,33.1,30.4,30.01,South,177,2.0,11.0,90,0.00,,,0.04,230.0,meteohub,2013-04-06 18:24:00,
2013-04-06 14:29:00,33.4,30.7,30.01,SSE,163,5.0,11.0,90,0.00,,,0.04,248.0,meteohub,2013-04-06 18:29:00,
2013-04-06 14:34:00,33.4,30.7,30.00,SE,140,5.0,12.0,90,0.00,,,0.04,209.0,meteohub,2013-04-06 18:34:00,
2013-04-06 14:39:00,33.4,30.7,29.99,NE,41,6.0,12.0,90,0.00,,,0.04,230.0,meteohub,2013-04-06 18:39:00,
2013-04-06 14:44:00,33.4,30.6,29.99,ESE,117,4.0,12.0,89,0.00,,,0.04,288.0,meteohub,2013-04-06 18:44:00,
2013-04-06 14:49:00,33.4,30.6,29.99,SE,140,7.0,14.0,89,0.00,,,0.04,183.0,meteohub,2013-04-06 18:49:00,
2013-04-06 14:54:00,33.4,30.7,29.99,South,176,8.0,14.0,90,0.00,,,0.04,211.0,meteohub,2013-04-06 18:54:00,
2013-04-06 14:59:00,33.4,30.7,29.98,ESE,116,3.0,14.0,90,0.00,,,0.04,204.0,meteohub,2013-04-06 18:59:00,
2013-04-06 15:04:00,33.4,31.1,29.98,South,180,5.0,12.0,91,0.00,,,0.04,214.0,meteohub,2013-04-06 19:04:00,
2013-04-06 15:09:00,33.4,30.7,29.99,SE,146,4.0,12.0,90,0.00,,,0.04,160.0,meteohub,2013-04-06 19:09:00,
2013-04-06 15:14:00,33.4,30.7,29.98,SSE,167,8.0,14.0,90,0.00,,,0.04,125.0,meteohub,2013-04-06 19:14:00,
2013-04-06 15:21:00,33.4,30.7,29.97,SE,138,5.0,14.0,90,0.00,,,0.04,105.0,meteohub,2013-04-06 19:21:00,
2013-04-06 15:26:00,33.3,30.6,29.96,South,186,6.0,13.0,90,0.00,,,0.04,109.0,meteohub,2013-04-06 19:26:00,
2013-04-06 15:32:00,33.1,30.7,29.96,SE,136,3.0,14.0,91,0.00,,,0.04,105.0,meteohub,2013-04-06 19:32:00,
2013-04-06 15:37:00,33.1,31.1,29.95,SSE,153,1.0,14.0,92,0.00,,,0.04,105.0,meteohub,2013-04-06 19:37:00,
2013-04-06 15:42:00,32.9,31.1,29.94,East,92,8.0,14.0,93,0.00,,,0.04,125.0,meteohub,2013-04-06 19:42:00,
2013-04-06 15:47:00,32.7,30.9,29.93,South,187,7.0,13.0,93,0.00,,,0.04,130.0,meteohub,2013-04-06 19:47:00,
2013-04-06 15:52:00,32.7,31.1,29.93,SE,146,6.0,9.0,94,0.01,,,0.05,142.0,meteohub,2013-04-06 19:52:00,
2013-04-06 15:57:00,32.7,31.1,29.93,SSE,147,3.0,13.0,94,0.01,,,0.05,144.0,meteohub,2013-04-06 19:57:00,
2013-04-06 16:02:00,32.9,31.3,29.92,SSE,148,3.0,13.0,94,0.02,,,0.06,127.0,meteohub,2013-04-06 20:02:00,
2013-04-06 16:07:00,33.1,31.5,29.91,South,181,4.0,13.0,94,0.02,,,0.06,139.0,meteohub,2013-04-06 20:07:00,
2013-04-06 16:12:00,33.1,31.5,29.91,South,180,3.0,13.0,94,0.02,,,0.06,135.0,meteohub,2013-04-06 20:12:00,
2013-04-06 16:17:00,33.3,31.6,29.90,East,101,7.0,13.0,94,0.02,,,0.06,153.0,meteohub,2013-04-06 20:17:00,
2013-04-06 16:22:00,33.3,31.6,29.90,SW,234,2.0,13.0,94,0.02,,,0.06,149.0,meteohub,2013-04-06 20:22:00,
2013-04-06 16:27:00,33.3,31.5,29.89,SSW,193,7.0,19.0,93,0.02,,,0.06,90.0,meteohub,2013-04-06 20:27:00,
2013-04-06 16:32:00,33.3,31.6,29.89,South,185,9.0,19.0,94,0.03,,,0.07,125.0,meteohub,2013-04-06 20:32:00,
2013-04-06 16:37:00,33.3,31.6,29.89,SE,130,5.0,19.0,94,0.03,,,0.07,169.0,meteohub,2013-04-06 20:37:00,
2013-04-06 16:42:00,33.4,31.8,29.88,SSE,166,3.0,14.0,94,0.03,,,0.07,156.0,meteohub,2013-04-06 20:42:00,
2013-04-06 16:47:00,33.4,31.6,29.88,South,187,6.0,14.0,93,0.03,,,0.07,97.0,meteohub,2013-04-06 20:47:00,
2013-04-06 16:52:00,33.4,31.6,29.87,SSW,200,6.0,15.0,93,0.03,,,0.08,93.0,meteohub,2013-04-06 20:52:00,
2013-04-06 16:57:00,33.4,31.6,29.86,SSE,153,3.0,15.0,93,0.03,,,0.08,134.0,meteohub,2013-04-06 20:57:00,
2013-04-06 17:02:00,33.4,31.6,29.86,SSE,165,8.0,15.0,93,0.02,,,0.08,139.0,meteohub,2013-04-06 21:02:00,
2013-04-06 17:08:00,33.4,31.6,29.86,SE,136,10.0,15.0,93,0.02,,,0.08,144.0,meteohub,2013-04-06 21:08:00,
2013-04-06 17:13:00,33.6,31.8,29.85,SE,139,6.0,15.0,93,0.02,,,0.08,139.0,meteohub,2013-04-06 21:13:00,
2013-04-06 17:18:00,33.6,32.0,29.85,South,172,4.0,15.0,94,0.02,,,0.08,139.0,meteohub,2013-04-06 21:18:00,
2013-04-06 17:23:00,33.6,31.8,29.85,South,171,3.0,15.0,93,0.02,,,0.08,149.0,meteohub,2013-04-06 21:23:00,
2013-04-06 17:28:00,33.6,31.8,29.84,South,186,4.0,16.0,93,0.01,,,0.08,130.0,meteohub,2013-04-06 21:28:00,
2013-04-06 17:33:00,33.8,32.0,29.83,South,172,5.0,16.0,93,0.01,,,0.08,116.0,meteohub,2013-04-06 21:33:00,
2013-04-06 17:38:00,33.8,32.0,29.83,SSE,160,7.0,17.0,93,0.01,,,0.08,81.0,meteohub,2013-04-06 21:38:00,
2013-04-06 17:43:00,33.8,31.6,29.81,ESE,103,4.0,17.0,92,0.01,,,0.08,74.0,meteohub,2013-04-06 21:43:00,
2013-04-06 17:48:00,33.8,31.6,29.79,ESE,119,4.0,20.0,92,0.01,,,0.08,83.0,meteohub,2013-04-06 21:48:00,
2013-04-06 17:53:00,33.6,31.8,29.77,SE,134,7.0,20.0,93,0.00,,,0.08,105.0,meteohub,2013-04-06 21:53:00,
2013-04-06 17:58:00,33.8,32.0,29.77,East,95,1.0,20.0,93,0.00,,,0.08,100.0,meteohub,2013-04-06 21:58:00,
2013-04-06 18:03:00,34.0,31.8,29.79,SSE,158,8.0,14.0,92,0.01,,,0.09,95.0,meteohub,2013-04-06 22:03:00,
2013-04-06 18:08:00,34.0,31.6,29.79,South,185,9.0,14.0,91,0.01,,,0.09,105.0,meteohub,2013-04-06 22:08:00,
2013-04-06 18:15:00,34.2,31.8,29.78,SSE,160,4.0,16.0,91,0.01,,,0.09,86.0,meteohub,2013-04-06 22:15:00,
2013-04-06 18:20:00,34.2,31.8,29.78,SSE,160,13.0,16.0,91,0.01,,,0.09,53.0,meteohub,2013-04-06 22:20:00,
2013-04-06 18:25:00,34.2,31.8,29.78,SE,140,7.0,17.0,91,0.01,,,0.09,37.0,meteohub,2013-04-06 22:25:00,
2013-04-06 18:30:00,34.2,31.5,29.79,South,173,4.0,15.0,90,0.01,,,0.09,44.0,meteohub,2013-04-06 22:30:00,
2013-04-06 18:35:00,34.3,31.6,29.79,SSE,164,5.0,11.0,90,0.01,,,0.09,39.0,meteohub,2013-04-06 22:35:00,
2013-04-06 18:40:00,34.3,31.5,29.80,SSE,155,10.0,18.0,89,0.01,,,0.09,33.0,meteohub,2013-04-06 22:40:00,
2013-04-06 18:45:00,34.3,31.5,29.80,South,188,5.0,18.0,89,0.01,,,0.09,33.0,meteohub,2013-04-06 22:45:00,
2013-04-06 18:50:00,34.5,31.6,29.80,SSE,163,7.0,18.0,89,0.01,,,0.09,25.0,meteohub,2013-04-06 22:50:00,
2013-04-06 18:55:00,34.5,31.3,29.80,SSW,204,9.0,18.0,88,0.01,,,0.09,16.0,meteohub,2013-04-06 22:55:00,
2013-04-06 19:00:00,34.5,31.3,29.80,SE,145,4.0,16.0,88,0.00,,,0.09,18.0,meteohub,2013-04-06 23:00:00,
2013-04-06 19:05:00,34.5,31.3,29.80,SSW,195,3.0,16.0,88,0.00,,,0.09,12.0,meteohub,2013-04-06 23:05:00,
2013-04-06 19:11:00,34.5,31.3,29.80,South,174,7.0,15.0,88,0.00,,,0.09,9.0,meteohub,2013-04-06 23:11:00,
2013-04-06 19:16:00,34.5,31.3,29.79,South,178,8.0,14.0,88,0.00,,,0.09,9.0,meteohub,2013-04-06 23:16:00,
2013-04-06 19:21:00,34.5,31.3,29.80,South,175,5.0,14.0,88,0.00,,,0.09,5.0,meteohub,2013-04-06 23:21:00,
2013-04-06 19:26:00,34.7,31.5,29.80,SSE,156,13.0,14.0,88,0.00,,,0.09,0.0,meteohub,2013-04-06 23:26:00,
2013-04-06 19:31:00,34.5,31.3,29.80,SSE,159,7.0,15.0,88,0.00,,,0.09,0.0,meteohub,2013-04-06 23:31:00,
2013-04-06 19:37:00,34.5,31.3,29.79,SSW,192,5.0,15.0,88,0.00,,,0.09,0.0,meteohub,2013-04-06 23:37:00,
2013-04-06 19:42:00,34.5,31.3,29.78,SSE,152,3.0,13.0,88,0.00,,,0.09,0.0,meteohub,2013-04-06 23:42:00,
2013-04-06 19:47:00,34.5,31.3,29.78,SSE,159,6.0,14.0,88,0.00,,,0.09,0.0,meteohub,2013-04-06 23:47:00,
2013-04-06 19:52:00,34.5,31.6,29.77,SSE,155,10.0,16.0,89,0.00,,,0.09,0.0,meteohub,2013-04-06 23:52:00,
2013-04-06 19:57:00,34.5,31.6,29.75,SE,143,4.0,16.0,89,0.00,,,0.09,0.0,meteohub,2013-04-06 23:57:00,
2013-04-06 20:02:00,34.3,31.5,29.75,SE,133,6.0,14.0,89,0.00,,,0.09,0.0,meteohub,2013-04-07 00:02:00,
2013-04-06 20:07:00,34.3,31.5,29.74,South,177,6.0,14.0,89,0.00,,,0.00,0.0,meteohub,2013-04-07 00:07:00,
2013-04-06 20:12:00,34.5,31.6,29.74,SE,144,9.0,13.0,89,0.00,,,0.00,0.0,meteohub,2013-04-07 00:12:00,
2013-04-06 20:18:00,34.5,31.3,29.74,SSE,153,13.0,13.0,88,0.00,,,0.00,0.0,meteohub,2013-04-07 00:18:00,
2013-04-06 20:23:00,34.7,31.5,29.74,SE,144,6.0,15.0,88,0.00,,,0.00,0.0,meteohub,2013-04-07 00:23:00,
2013-04-06 20:29:00,34.9,31.5,29.74,South,182,5.0,15.0,87,0.00,,,0.00,0.0,meteohub,2013-04-07 00:29:00,
2013-04-06 20:34:00,34.9,31.5,29.74,SSE,163,8.0,15.0,87,0.00,,,0.00,0.0,meteohub,2013-04-07 00:34:00,
2013-04-06 20:39:00,34.9,31.5,29.74,South,182,8.0,15.0,87,0.00,,,0.00,0.0,meteohub,2013-04-07 00:39:00,
2013-04-06 20:45:00,34.9,31.5,29.74,South,173,5.0,16.0,87,0.00,,,0.00,0.0,meteohub,2013-04-07 00:45:00,
2013-04-06 20:50:00,34.9,31.6,29.73,South,183,4.0,18.0,88,0.00,,,0.00,0.0,meteohub,2013-04-07 00:50:00,
2013-04-06 20:55:00,34.5,31.6,29.74,South,184,5.0,12.0,89,0.00,,,0.00,0.0,meteohub,2013-04-07 00:55:00,
2013-04-06 21:00:00,34.5,31.8,29.74,South,189,6.0,12.0,90,0.00,,,0.00,0.0,meteohub,2013-04-07 01:00:00,
2013-04-06 21:05:00,34.5,31.8,29.74,SE,144,11.0,12.0,90,0.01,,,0.01,0.0,meteohub,2013-04-07 01:05:00,
2013-04-06 21:10:00,34.5,31.8,29.74,South,180,7.0,15.0,90,0.01,,,0.01,0.0,meteohub,2013-04-07 01:10:00,
2013-04-06 21:15:00,34.3,31.6,29.73,South,171,14.0,15.0,90,0.01,,,0.01,0.0,meteohub,2013-04-07 01:15:00,
2013-04-06 21:20:00,34.5,31.8,29.73,South,189,4.0,15.0,90,0.01,,,0.01,0.0,meteohub,2013-04-07 01:20:00,
2013-04-06 21:25:00,34.5,31.8,29.73,South,174,3.0,14.0,90,0.01,,,0.01,0.0,meteohub,2013-04-07 01:25:00,
2013-04-06 21:30:00,34.5,31.8,29.72,SE,142,6.0,14.0,90,0.01,,,0.01,0.0,meteohub,2013-04-07 01:30:00,
2013-04-06 21:35:00,34.3,31.6,29.72,South,190,9.0,17.0,90,0.01,,,0.01,0.0,meteohub,2013-04-07 01:35:00,
2013-04-06 21:41:00,34.5,31.8,29.71,SW,225,5.0,17.0,90,0.01,,,0.01,0.0,meteohub,2013-04-07 01:41:00,
2013-04-06 21:46:00,34.3,31.6,29.71,South,184,9.0,17.0,90,0.01,,,0.01,0.0,meteohub,2013-04-07 01:46:00,
2013-04-06 21:51:00,34.3,31.6,29.71,SSW,198,4.0,16.0,90,0.01,,,0.01,0.0,meteohub,2013-04-07 01:51:00,
2013-04-06 21:57:00,34.3,32.0,29.70,South,178,9.0,14.0,91,0.01,,,0.01,0.0,meteohub,2013-04-07 01:57:00,
2013-04-06 22:02:00,34.3,31.6,29.70,South,170,4.0,14.0,90,0.00,,,0.01,0.0,meteohub,2013-04-07 02:02:00,
2013-04-06 22:07:00,34.3,31.6,29.69,South,188,9.0,15.0,90,0.01,,,0.02,0.0,meteohub,2013-04-07 02:07:00,
2013-04-06 22:12:00,34.3,31.6,29.69,South,169,6.0,15.0,90,0.01,,,0.02,0.0,meteohub,2013-04-07 02:12:00,
2013-04-06 22:17:00,34.2,31.8,29.69,SSE,157,9.0,15.0,91,0.01,,,0.02,0.0,meteohub,2013-04-07 02:17:00,
2013-04-06 22:22:00,34.2,31.8,29.68,South,182,8.0,15.0,91,0.02,,,0.03,0.0,meteohub,2013-04-07 02:22:00,
2013-04-06 22:27:00,34.2,31.8,29.67,SSW,203,7.0,15.0,91,0.02,,,0.03,0.0,meteohub,2013-04-07 02:27:00,
2013-04-06 22:32:00,34.0,31.6,29.67,SE,127,3.0,15.0,91,0.02,,,0.03,0.0,meteohub,2013-04-07 02:32:00,
2013-04-06 22:37:00,34.0,31.6,29.66,SSE,153,3.0,11.0,91,0.02,,,0.03,0.0,meteohub,2013-04-07 02:37:00,
2013-04-06 22:42:00,34.0,31.6,29.66,South,169,12.0,12.0,91,0.02,,,0.03,0.0,meteohub,2013-04-07 02:42:00,
2013-04-06 22:47:00,34.0,31.6,29.65,SE,130,2.0,12.0,91,0.02,,,0.03,0.0,meteohub,2013-04-07 02:47:00,
2013-04-06 22:52:00,34.0,31.8,29.65,SSW,203,2.0,12.0,92,0.02,,,0.03,0.0,meteohub,2013-04-07 02:52:00,
2013-04-06 22:57:00,34.0,31.6,29.65,South,170,4.0,12.0,91,0.02,,,0.03,0.0,meteohub,2013-04-07 02:57:00,
2013-04-06 23:03:00,34.0,31.6,29.65,SSW,202,3.0,11.0,91,0.01,,,0.03,0.0,meteohub,2013-04-07 03:03:00,
2013-04-06 23:07:00,34.2,31.8,29.65,South,172,4.0,9.0,91,0.01,,,0.03,0.0,meteohub,2013-04-07 03:07:00,
2013-04-06 23:12:00,34.2,31.8,29.65,SSE,161,5.0,9.0,91,0.01,,,0.03,0.0,meteohub,2013-04-07 03:12:00,
2013-04-06 23:17:00,34.3,32.0,29.64,South,173,4.0,9.0,91,0.01,,,0.03,0.0,meteohub,2013-04-07 03:17:00,
2013-04-06 23:23:00,34.3,32.0,29.64,SSW,192,4.0,11.0,91,0.00,,,0.03,0.0,meteohub,2013-04-07 03:23:00,
2013-04-06 23:28:00,34.3,32.0,29.63,SSW,195,16.0,16.0,91,0.00,,,0.03,0.0,meteohub,2013-04-07 03:28:00,
2013-04-06 23:33:00,35.1,32.4,29.62,SE,146,5.0,18.0,90,0.00,,,0.03,0.0,meteohub,2013-04-07 03:33:00,
2013-04-06 23:38:00,34.7,32.0,29.62,South,170,10.0,18.0,90,0.00,,,0.03,0.0,meteohub,2013-04-07 03:38:00,
2013-04-06 23:43:00,34.5,31.8,29.61,SSE,159,2.0,18.0,90,0.00,,,0.03,0.0,meteohub,2013-04-07 03:43:00,
2013-04-06 23:48:00,34.5,31.8,29.61,South,175,7.0,13.0,90,0.00,,,0.03,0.0,meteohub,2013-04-07 03:48:00,
2013-04-06 23:53:00,34.7,32.0,29.61,South,185,4.0,13.0,90,0.00,,,0.03,0.0,meteohub,2013-04-07 03:53:00,
2013-04-06 23:58:00,34.9,32.2,29.60,SSE,155,11.0,13.0,90,0.00,,,0.03,0.0,meteohub,2013-04-07 03:58:00,